TimeGMT,TemperatureF,Dew PointF,Humidity,Sea Level PressureIn,VisibilityMPH,Wind Direction,Wind SpeedMPH,Gust SpeedMPH,PrecipitationIn,Events,Conditions,WindDirDegrees,DateUTC
12:50 AM,51.8,50.0,94,30.33,6.2,South,4.6,-,N/A,,Overcast,170,2012-11-14 00:50:00
1:50 AM,51.8,50.0,94,30.33,6.2,SSE,4.6,-,N/A,,Mostly Cloudy,160,2012-11-14 01:50:00
2:50 AM,52,49,88,30.34,7,SSE,4.6,,,,Overcast,150,2012-11-14 02:50:00
2:50 AM,51.8,50.0,94,30.33,6.2,SSE,4.6,-,N/A,,Overcast,150,2012-11-14 02:50:00
3:50 AM,51.8,50.0,94,30.33,6.2,SSE,6.9,-,N/A,,Mostly Cloudy,150,2012-11-14 03:50:00
4:50 AM,51.8,48.2,88,30.33,6.2,SE,5.8,-,N/A,,Overcast,140,2012-11-14 04:50:00
5:50 AM,51,48,86,30.33,7,SE,3.5,,,,Mostly Cloudy,130,2012-11-14 05:50:00
5:50 AM,51.8,48.2,88,30.30,6.2,SE,3.5,-,N/A,,Mostly Cloudy,130,2012-11-14 05:50:00
6:50 AM,50.0,46.4,87,30.33,6.2,SE,2.3,-,N/A,,Scattered Clouds,130,2012-11-14 06:50:00
7:50 AM,50.0,46.4,87,30.33,6.2,SSE,4.6,-,N/A,Fog,Shallow Fog,150,2012-11-14 07:50:00
8:50 AM,52,47,79,30.34,9,SSE,3.5,,,,Mostly Cloudy,150,2012-11-14 08:50:00
8:50 AM,51.8,48.2,88,30.33,6.2,SSE,3.5,-,N/A,,Mostly Cloudy,150,2012-11-14 08:50:00
9:50 AM,51.8,48.2,88,30.33,6.2,SE,5.8,-,N/A,,Mostly Cloudy,130,2012-11-14 09:50:00
10:50 AM,53.6,46.4,77,30.33,6.2,SE,6.9,-,N/A,,Scattered Clouds,140,2012-11-14 10:50:00
11:50 AM,56,44,54,30.32,14,SE,5.8,,,,Scattered Clouds,130,2012-11-14 11:50:00
11:50 AM,55.4,44.6,67,30.30,6.2,SE,5.8,-,N/A,,Partly Cloudy,130,2012-11-14 11:50:00
12:50 PM,57.2,42.8,59,30.30,6.2,SE,3.5,-,N/A,,Partly Cloudy,130,2012-11-14 12:50:00
1:50 PM,57.2,41.0,55,30.27,-9999.0,ESE,4.6,-,N/A,,Clear,120,2012-11-14 13:50:00
2:50 PM,58,40,40,30.27,22,East,5.8,,,,Clear,100,2012-11-14 14:50:00
2:50 PM,57.2,41.0,55,30.24,-9999.0,East,5.8,-,N/A,,Clear,100,2012-11-14 14:50:00
3:50 PM,53.6,42.8,67,30.24,-9999.0,ENE,6.9,-,N/A,,Clear,70,2012-11-14 15:50:00
4:50 PM,51.8,44.6,76,30.27,-9999.0,East,6.9,-,N/A,,Clear,90,2012-11-14 16:50:00
5:50 PM,49,42,69,30.28,16,ENE,5.8,,,,Clear,70,2012-11-14 17:50:00
5:50 PM,48.2,42.8,82,30.27,-9999.0,ENE,5.8,-,N/A,,Clear,70,2012-11-14 17:50:00
6:50 PM,46.4,42.8,87,30.27,-9999.0,ENE,5.8,-,N/A,,Clear,70,2012-11-14 18:50:00
7:50 PM,46.4,42.8,87,30.27,6.2,ENE,5.8,-,N/A,,Partly Cloudy,70,2012-11-14 19:50:00
8:50 PM,42,40,90,30.30,5,East,3.5,,,,,80,2012-11-14 20:50:00
8:50 PM,42.8,41.0,93,30.27,5.0,East,3.5,-,N/A,,Unknown,80,2012-11-14 20:50:00
9:50 PM,42.8,41.0,93,30.27,-9999.0,NE,5.8,-,N/A,,Scattered Clouds,40,2012-11-14 21:50:00
10:50 PM,44.6,44.6,100,30.27,-9999.0,ENE,4.6,-,N/A,,Mostly Cloudy,70,2012-11-14 22:50:00
11:50 PM,44,42,89,30.28,2,Calm,Calm,,,,Mostly Cloudy,,2012-11-14 23:50:00
11:50 PM,42.8,42.8,100,30.27,-9999.0,Calm,Calm,-,N/A,,Mostly Cloudy,0,2012-11-14 23:50:00